H1 CPF 1 NER 2021 12 11 9 8451 glonass138 H2 1805301 9138 43508 2021 12 11 0 0 0 2021 12 14 23 45 0 900 1 1 0 0 0 H9 10 0 59559 0.00000 0 10765870.111 -3854347.083 -22799799.487 10 0 59559 900.00000 0 12671118.565 -1843859.681 -22062407.099 10 0 59559 1800.00000 0 14633910.666 -59673.508 -20896600.062 10 0 59559 2700.00000 0 16592837.988 1467668.616 -19325108.212 10 0 59559 3600.00000 0 18483348.557 2719804.370 -17378519.221 10 0 59559 4500.00000 0 20240355.846 3691066.771 -15094680.905 10 0 59559 5400.00000 0 21800887.331 4388461.582 -12517964.363 10 0 59559 6300.00000 0 23106662.406 4831110.096 -9698402.130 10 0 59559 7200.00000 0 24106492.290 5049182.232 -6690717.947 10 0 59559 8100.00000 0 24758401.959 5082366.238 -3553266.766 10 0 59559 9000.00000 0 25031385.689 4977940.488 -346905.310 10 0 59559 9900.00000 0 24906722.939 4788529.407 2866184.961 10 0 59559 10800.00000 0 24378799.663 4569638.776 6023699.883 10 0 59559 11700.00000 0 23455400.695 4377074.741 9064416.458 10 0 59559 12600.00000 0 22157460.869 4264355.653 11929375.359 10 0 59559 13500.00000 0 20518285.071 4280226.108 14563019.419 10 0 59559 14400.00000 0 18582269.399 4466378.174 16914266.376 10 0 59559 15300.00000 0 16403176.353 4855476.092 18937495.420 10 0 59559 16200.00000 0 14042035.350 5469568.024 20593428.892 10 0 59559 17100.00000 0 11564755.225 6318952.319 21849892.533 10 0 59559 18000.00000 0 9039547.337 7401546.787 22682439.869 10 0 59559 18900.00000 0 6534265.553 8702788.657 23074828.954 10 0 59559 19800.00000 0 4113772.765 10196070.842 23019342.305 10 0 59559 20700.00000 0 1837442.644 11843697.800 22516943.625 10 0 59559 21600.00000 0 -243100.310 13598322.680 21577267.906 10 0 59559 22500.00000 0 -2085909.060 15404807.282 20218444.372 10 0 59559 23400.00000 0 -3660230.821 17202428.397 18466754.851 10 0 59559 24300.00000 0 -4947549.562 18927339.425 16356133.220 10 0 59559 25200.00000 0 -5942110.978 20515184.946 13927514.578 10 0 59559 26100.00000 0 -6650908.289 21903758.983 11228045.952 10 0 59559 27000.00000 0 -7093129.793 23035595.369 8310173.166 10 0 59559 27900.00000 0 -7299091.931 23860380.916 5230621.206 10 0 59559 28800.00000 0 -7308703.373 24337089.094 2049287.992 10 0 59559 29700.00000 0 -7169525.799 24435743.452 -1171926.605 10 0 59559 30600.00000 0 -6934514.367 24138735.433 -4370333.041 10 0 59559 31500.00000 0 -6659534.630 23441640.092 -7483681.037 10 0 59559 32400.00000 0 -6400762.396 22353494.534 -10451380.211 10 0 59559 33300.00000 0 -6212077.964 20896526.783 -13215687.574 10 0 59559 34200.00000 0 -6142566.413 19105346.254 -15722837.725 10 0 59559 35100.00000 0 -6234230.878 17025629.838 -17924093.066 10 0 59559 36000.00000 0 -6520016.506 14712358.953 -19776693.190 10 0 59559 36900.00000 0 -7022229.280 12227681.810 -21244684.847 10 0 59559 37800.00000 0 -7751416.880 9638490.665 -22299616.634 10 0 59559 38700.00000 0 -8705759.048 7013815.438 -22921085.472 10 0 59559 39600.00000 0 -9870993.145 4422142.502 -23097124.928 10 0 59559 40500.00000 0 -11220878.066 1928770.013 -22824428.735 10 0 59559 41400.00000 0 -12718177.025 -406690.812 -22108405.999 10 0 59559 42300.00000 0 -14316117.938 -2532565.407 -20963067.741 10 0 59559 43200.00000 0 -15960270.354 -4407024.358 -19410747.612 10 0 59559 44100.00000 0 -17590760.442 -5999572.847 -17481662.556 10 0 59559 45000.00000 0 -19144731.529 -7292060.722 -15213322.194 10 0 59559 45900.00000 0 -20558947.476 -8279172.989 -12649798.413 10 0 59559 46800.00000 0 -21772430.238 -8968382.113 -9840869.220 10 0 59559 47700.00000 0 -22729021.398 -9379365.874 -6841053.360 10 0 59559 48600.00000 0 -23379760.716 -9542916.803 -3708554.211 10 0 59559 49500.00000 0 -23684982.181 -9499390.352 -504133.233 10 0 59559 50400.00000 0 -23616039.854 -9296758.135 2710065.280 10 0 59559 51300.00000 0 -23156591.194 -8988348.997 5871715.531 10 0 59559 52200.00000 0 -22303383.922 -8630373.673 8919514.530 10 0 59559 53100.00000 0 -21066513.272 -8279337.689 11794366.120 10 0 59559 54000.00000 0 -19469138.392 -7989451.756 14440522.073 10 0 59559 54900.00000 0 -17546669.208 -7810148.927 16806658.482 10 0 59559 55800.00000 0 -15345457.005 -7783813.169 18846866.891 10 0 59559 56700.00000 0 -12921042.496 -7943815.169 20521541.482 10 0 59559 57600.00000 0 -10336033.365 -8312938.304 21798145.564 10 0 59559 58500.00000 0 -7657698.618 -8902261.463 22651842.886 10 0 59559 59400.00000 0 -4955378.644 -9710546.402 23065981.834 10 0 59559 60300.00000 0 -2297817.484 -10724156.390 23032423.230 10 0 59559 61200.00000 0 249472.841 -11917510.800 22551705.187 10 0 59559 62100.00000 0 2626707.411 -13254057.985 21633041.423 10 0 59559 63000.00000 0 4782080.015 -14687727.167 20294152.399 10 0 59559 63900.00000 0 6673678.147 -16164799.827 18560931.666 10 0 59559 64800.00000 0 8270982.164 -17626123.344 16466952.913 10 0 59559 65700.00000 0 9555886.410 -19009574.903 14052826.249 10 0 59559 66600.00000 0 10523199.878 -20252672.669 11365415.352 10 0 59559 67500.00000 0 11180605.766 -21295224.566 8456929.997 10 0 59559 68400.00000 0 11548082.030 -22081902.857 5383911.175 10 0 59559 69300.00000 0 11656807.816 -22564635.357 2206128.605 10 0 59559 70200.00000 0 11547602.583 -22704711.509 -1014587.622 10 0 59559 71100.00000 0 11268964.761 -22474513.341 -4215557.872 10 0 59559 72000.00000 0 10874793.912 -21858797.117 -7334481.661 10 0 59559 72900.00000 0 10421894.048 -20855470.536 -10310659.293 10 0 59559 73800.00000 0 9967365.039 -19475831.819 -13086181.564 10 0 59559 74700.00000 0 9565993.829 -17744259.992 -15607063.307 10 0 59559 75600.00000 0 9267756.970 -15697369.021 -17824298.050 10 0 59559 76500.00000 0 9115541.034 -13382661.170 -19694812.807 10 0 59559 77400.00000 0 9143177.871 -10856736.132 -21182304.295 10 0 59559 78300.00000 0 9373878.036 -8183130.992 -22257940.590 10 0 59559 79200.00000 0 9819128.536 -5429881.324 -22900915.122 10 0 59559 80100.00000 0 10478101.225 -2666905.188 -23098842.942 10 0 59559 81000.00000 0 11337596.479 36681.300 -22847992.424 10 0 59559 81900.00000 0 12372524.211 2615205.696 -22153348.733 10 0 59559 82800.00000 0 13546901.720 5008929.151 -21028508.564 10 0 59559 83700.00000 0 14815326.254 7166282.205 -19495408.825 10 0 59559 84600.00000 0 16124860.400 9045754.899 -17583894.873 10 0 59559 85500.00000 0 17417251.148 10617364.104 -15331136.975 10 0 59560 0.00000 0 18631389.575 11863638.635 -12780906.572 10 0 59560 900.00000 0 19705908.720 12780083.490 -9982724.879 10 0 59560 1800.00000 0 20581809.230 13375103.944 -6990903.730 10 0 59560 2700.00000 0 21205004.930 13669396.599 -3863492.499 10 0 59560 3600.00000 0 21528679.958 13694832.631 -661154.692 10 0 59560 4500.00000 0 21515359.208 13492882.097 2554005.430 10 0 59560 5400.00000 0 21138605.023 13112646.373 5719643.411 10 0 59560 6300.00000 0 20384268.711 12608582.226 8774379.240 10 0 59560 7200.00000 0 19251244.060 12038013.784 11658982.851 10 0 59560 8100.00000 0 17751690.716 11458537.394 14317517.759 10 0 59560 9000.00000 0 15910717.360 10925428.764 16698421.052 10 0 59560 9900.00000 0 13765537.048 10489161.482 18755499.084 10 0 59560 10800.00000 0 11364128.921 10193141.328 20448820.110 10 0 59560 11700.00000 0 8763460.861 10071751.658 21745487.002 10 0 59560 12600.00000 0 6027345.883 10148792.200 22620275.436 10 0 59560 13500.00000 0 3224020.042 10436377.152 23056125.504 10 0 59560 14400.00000 0 423541.186 10934339.472 23044477.316 10 0 59560 15300.00000 0 -2304884.601 11630167.152 22585443.915 10 0 59560 16200.00000 0 -4895538.956 12499475.174 21687817.791 10 0 59560 17100.00000 0 -7288681.082 13506994.529 20368910.151 10 0 59560 18000.00000 0 -9432788.613 14608037.937 18654225.262 10 0 59560 18900.00000 0 -11286456.810 15750381.820 16576975.131 10 0 59560 19800.00000 0 -12819877.316 16876486.368 14177442.960 10 0 59560 20700.00000 0 -14015834.879 17925960.830 11502206.823 10 0 59560 21600.00000 0 -14870180.599 18838170.494 8603237.940 10 0 59560 22500.00000 0 -15391762.091 19554875.228 5536890.632 10 0 59560 23400.00000 0 -15601813.828 20022787.709 2362803.623 10 0 59560 24300.00000 0 -15532833.895 20195942.383 -857265.634 10 0 59560 25200.00000 0 -15226995.257 20037773.954 -4060650.286 10 0 59560 26100.00000 0 -14734159.578 19522816.333 -7185002.515 10 0 59560 27000.00000 0 -14109578.675 18637949.033 -10169516.118 10 0 59560 27900.00000 0 -13411382.024 17383137.255 -12956118.358 10 0 59560 28800.00000 0 -12697957.831 15771633.540 -15490606.831 10 0 59560 29700.00000 0 -12025339.511 13829631.800 -17723708.494 10 0 59560 30600.00000 0 -11444708.978 11595387.778 -19612039.832 10 0 59560 31500.00000 0 -11000122.833 9117842.647 -21118949.296 10 0 59560 32400.00000 0 -10726557.718 6454807.247 -22215225.913 10 0 59560 33300.00000 0 -10648357.257 3670782.741 -22879660.794 10 0 59560 34200.00000 0 -10778145.713 834508.598 -23099451.320 10 0 59560 35100.00000 0 -11116253.581 -1983660.247 -22870441.008 10 0 59560 36000.00000 0 -11650678.672 -4714438.394 -22197191.219 10 0 59560 36900.00000 0 -12357583.653 -7292246.108 -21092884.081 10 0 59560 37800.00000 0 -13202308.543 -9657688.024 -19579059.108 10 0 59560 38700.00000 0 -14140855.147 -11759772.627 -17685189.051 10 0 59560 39600.00000 0 -15121780.701 -13557781.515 -15448103.449 10 0 59560 40500.00000 0 -16088420.980 -15022712.262 -12911271.142 10 0 59560 41400.00000 0 -16981349.389 -16138236.405 -10123955.547 10 0 59560 42300.00000 0 -17740968.657 -16901134.163 -7140259.036 10 0 59560 43200.00000 0 -18310126.265 -17321189.364 -4018074.703 10 0 59560 44100.00000 0 -18636643.672 -17420550.446 -817965.690 10 0 59560 45000.00000 0 -18675652.987 -17232585.559 2398006.312 10 0 59560 45900.00000 0 -18391642.742 -16800280.929 5567480.840 10 0 59560 46800.00000 0 -17760126.566 -16174250.539 8629003.633 10 0 59560 47700.00000 0 -16768864.287 -15410441.377 11523213.543 10 0 59560 48600.00000 0 -15418583.624 -14567631.042 14193988.681 10 0 59560 49500.00000 0 -13723171.436 -13704823.063 16589529.914 10 0 59560 50400.00000 0 -11709325.560 -12878649.363 18663361.051 10 0 59560 51300.00000 0 -9415680.581 -12140888.923 20375226.820 10 0 59560 52200.00000 0 -6891442.652 -11536206.677 21691871.743 10 0 59560 53100.00000 0 -4194588.838 -11100207.469 22587685.132 10 0 59560 54000.00000 0 -1389704.344 -10857886.736 23045200.085 10 0 59560 54900.00000 0 1454454.016 -10822543.106 23055436.872 10 0 59560 55800.00000 0 4267568.257 -10995198.893 22618083.934 10 0 59560 56700.00000 0 6980436.514 -11364553.404 21741512.581 10 0 59560 57600.00000 0 9527607.091 -11907471.764 20442624.454 10 0 59560 58500.00000 0 11849860.579 -12589989.595 18746533.838 10 0 59560 59400.00000 0 13896437.410 -13368792.207 16686090.008 10 0 59560 60300.00000 0 15626918.435 -14193106.818 14301247.835 10 0 59560 61200.00000 0 17012680.158 -15006928.689 11638297.983 10 0 59560 62100.00000 0 18037863.897 -15751487.573 8748970.934 10 0 59560 63000.00000 0 18699818.352 -16367850.281 5689431.789 10 0 59560 63900.00000 0 19008997.085 -16799548.943 2519185.437 10 0 59560 64800.00000 0 18988315.586 -16995123.049 -700086.379 10 0 59560 65700.00000 0 18671995.486 -16910466.620 -3905732.788 10 0 59560 66600.00000 0 18103945.417 -16510879.999 -7035361.854 10 0 59560 67500.00000 0 17335747.819 -15772738.103 -10028064.012 10 0 59560 68400.00000 0 16424337.851 -14684703.362 -12825605.994 10 0 59560 69300.00000 0 15429473.596 -13248430.960 -15373570.943 10 0 59560 70200.00000 0 14411105.543 -11478735.715 -17622421.781 10 0 59560 71100.00000 0 13426757.342 -9403212.767 -19528466.711 10 0 59560 72000.00000 0 12529029.015 -7061327.573 -21054707.845 10 0 59560 72900.00000 0 11763328.239 -4503012.947 -22171556.722 10 0 59560 73800.00000 0 11165925.227 -1786831.575 -22857403.309 10 0 59560 74700.00000 0 10762412.716 1022219.427 -23099028.089 10 0 59560 75600.00000 0 10566635.181 3855170.726 -22891850.083 10 0 59560 76500.00000 0 10580131.382 6641707.675 -22240006.831 10 0 59560 77400.00000 0 10792112.728 9312853.160 -21156265.493 10 0 59560 78300.00000 0 11179977.346 11803595.716 -19661767.464 10 0 59560 79200.00000 0 11710337.367 14055354.649 -17785611.827 10 0 59560 80100.00000 0 12340515.474 16018180.790 -15564286.029 10 0 59560 81000.00000 0 13020447.228 17652602.671 -13040954.873 10 0 59560 81900.00000 0 13694908.724 18931042.632 -10264621.549 10 0 59560 82800.00000 0 14305975.617 19838745.244 -7289176.912 10 0 59560 83700.00000 0 14795609.851 20374180.710 -4172355.252 10 0 59560 84600.00000 0 15108265.134 20548907.777 -974616.599 10 0 59560 85500.00000 0 15193401.342 20386903.074 2242022.811 10 0 59561 0.00000 0 15007801.947 19923386.114 5415189.168 10 0 59561 900.00000 0 14517596.513 19203189.802 8483357.452 10 0 59561 1800.00000 0 13699903.184 18278746.089 11387037.978 10 0 59561 2700.00000 0 12544021.210 17207770.921 14069926.136 10 0 59561 3600.00000 0 11052122.890 16050746.346 16479989.080 10 0 59561 4500.00000 0 9239414.874 14868305.240 18570470.365 10 0 59561 5400.00000 0 7133760.850 13718628.227 20300793.271 10 0 59561 6300.00000 0 4774779.924 12654961.650 21637345.793 10 0 59561 7200.00000 0 2212456.756 11723360.364 22554132.424 10 0 59561 8100.00000 0 -494680.336 10960749.683 23033280.490 10 0 59561 9000.00000 0 -3281739.279 10393387.481 23065391.270 10 0 59561 9900.00000 0 -6079913.054 10035790.928 22649729.015 10 0 59561 10800.00000 0 -8819097.234 9890172.985 21794243.803 10 0 59561 11700.00000 0 -11430568.781 9946412.621 20515427.136 10 0 59561 12600.00000 0 -13849615.652 10182560.507 18838002.244 10 0 59561 13500.00000 0 -16018008.577 10565859.463 16794454.102 10 0 59561 14400.00000 0 -17886212.443 11054237.265 14424407.254 10 0 59561 15300.00000 0 -19415245.116 11598209.354 11773862.611 10 0 59561 16200.00000 0 -20578106.011 12143111.388 8894307.326 10 0 59561 17100.00000 0 -21360714.490 12631567.279 5841714.543 10 0 59561 18000.00000 0 -21762318.558 13006087.958 2675452.485 10 0 59561 18900.00000 0 -21795356.744 13211690.171 -542875.645 10 0 59561 19800.00000 0 -21484779.176 13198423.400 -3750637.786 10 0 59561 20700.00000 0 -20866856.893 12923696.664 -6885400.669 10 0 59561 21600.00000 0 -19987530.334 12354305.318 -9886154.080 10 0 59561 22500.00000 0 -18900367.575 11468070.711 -12694506.839 10 0 59561 23400.00000 0 -17664219.508 10255022.120 -15255830.102 10 0 59561 24300.00000 0 -16340671.953 8718069.919 -17520325.020 10 0 59561 25200.00000 0 -14991403.056 6873140.654 -19443993.506 10 0 59561 26100.00000 0 -13675558.060 4748767.649 -20989493.003 10 0 59561 27000.00000 0 -12447252.392 2385153.763 -22126858.885 10 0 59561 27900.00000 0 -11353308.071 -167254.916 -22834080.923 10 0 59561 28800.00000 0 -10431318.290 -2849625.064 -23097523.267 10 0 59561 29700.00000 0 -9708120.677 -5596944.737 -22912180.633 10 0 59561 30600.00000 0 -9198742.346 -8340493.014 -22281766.534 10 0 59561 31500.00000 0 -8905859.799 -11010468.261 -21218632.605 10 0 59561 32400.00000 0 -8819795.023 -13538666.428 -19743521.198 10 0 59561 33300.00000 0 -8919046.671 -15861098.784 -17885156.495 10 0 59561 34200.00000 0 -9171332.806 -17920441.126 -15679682.332 10 0 59561 35100.00000 0 -9535100.381 -19668213.619 -13169957.735 10 0 59561 36000.00000 0 -9961437.134 -21066601.707 -10404723.758 10 0 59561 36900.00000 0 -10396304.851 -22089843.294 -7437657.723 10 0 59561 37800.00000 0 -10782999.509 -22725125.578 -4326333.012 10 0 59561 38700.00000 0 -11064734.360 -22972955.223 -1131104.405 10 0 59561 39600.00000 0 -11187236.924 -22846987.418 2086059.527 10 0 59561 40500.00000 0 -11101250.226 -22373321.962 5262774.470 10 0 59561 41400.00000 0 -10764832.690 -21589296.629 8337445.848 10 0 59561 42300.00000 0 -10145359.507 -20541828.953 11250458.436 10 0 59561 43200.00000 0 -9221140.776 -19285376.347 13945327.361 10 0 59561 44100.00000 0 -7982587.714 -17879600.178 16369788.510 10 0 59561 45000.00000 0 -6432877.089 -16386831.684 18476807.559 10 0 59561 45900.00000 0 -4588084.832 -14869445.609 20225488.555 10 0 59561 46800.00000 0 -2476781.835 -13387251.185 21581864.953 10 0 59561 47700.00000 0 -139107.217 -11995009.193 22519558.140 10 0 59561 48600.00000 0 2374644.028 -10740178.519 23020291.041 10 0 59561 49500.00000 0 5005862.066 -9660986.017 23074246.975 10 0 59561 50400.00000 0 7689817.002 -8784900.137 22680266.673 10 0 59561 51300.00000 0 10358117.871 -8127571.994 21845879.288 10 0 59561 52200.00000 0 12941335.044 -7692288.155 20587166.139 10 0 59561 53100.00000 0 15371678.058 -7469958.263 18928459.003 10 0 59561 54000.00000 0 17585618.275 -7439638.171 16901877.803 10 0 59561 54900.00000 0 19526347.576 -7569566.848 14546715.630 10 0 59561 55800.00000 0 21145970.569 -7818673.650 11908682.131 10 0 59561 56700.00000 0 22407338.622 -8138492.409 9039019.208 10 0 59561 57600.00000 0 23285448.652 -8475401.428 5993505.729 10 0 59561 58500.00000 0 23768347.638 -8773094.223 2831370.567 10 0 59561 59400.00000 0 23857504.620 -8975175.767 -385864.614 10 0 59561 60300.00000 0 23567634.407 -9027773.256 -3595589.760 10 0 59561 61200.00000 0 22925980.534 -8882049.616 -6735333.566 10 0 59561 62100.00000 0 21971088.047 -8496511.890 -9743988.446 10 0 59561 63000.00000 0 20751118.499 -7839015.330 -12563008.453 10 0 59561 63900.00000 0 19321778.985 -6888377.073 -15137555.695 10 0 59561 64800.00000 0 17743953.404 -5635529.946 -17417572.225 10 0 59561 65700.00000 0 16081136.574 -4084166.622 -19358756.043 10 0 59561 66600.00000 0 14396779.934 -2250846.174 -20923421.987 10 0 59561 67500.00000 0 12751660.866 -164557.822 -22081230.993 10 0 59561 68400.00000 0 11201386.246 2134240.381 -22809773.998 10 0 59561 69300.00000 0 9794134.719 4595068.036 -23094999.802 10 0 59561 70200.00000 0 8568731.682 7159294.037 -22931479.393 10 0 59561 71100.00000 0 7553136.600 9762355.677 -22322502.437 10 0 59561 72000.00000 0 6763404.740 12336233.102 -21280004.801 10 0 59561 72900.00000 0 6203165.311 14812076.660 -19824329.160 10 0 59561 73800.00000 0 5863636.289 17122878.432 -17983823.764 10 0 59561 74700.00000 0 5724173.782 19206077.433 -15794287.435 10 0 59561 75600.00000 0 5753331.438 21005990.889 -13298271.663 10 0 59561 76500.00000 0 5910384.131 22475971.226 -10544253.262 10 0 59561 77400.00000 0 6147250.868 23580199.721 -7585693.604 10 0 59561 78300.00000 0 6410735.149 24295042.975 -4480002.479 10 0 59561 79200.00000 0 6644987.859 24609916.450 -1287426.507 10 0 59561 80100.00000 0 6794088.462 24527619.825 1930116.445 10 0 59561 81000.00000 0 6804635.368 24064130.921 5110234.364 10 0 59561 81900.00000 0 6628235.996 23247867.444 8191266.745 10 0 59561 82800.00000 0 6223791.297 22118447.938 11113475.480 10 0 59561 83700.00000 0 5559478.134 20725004.119 13820198.204 10 0 59561 84600.00000 0 4614345.504 19124115.324 16258942.102 10 0 59561 85500.00000 0 3379456.793 17377451.427 18382397.291 10 0 59562 0.00000 0 1858529.233 15549222.688 20149350.516 10 0 59562 900.00000 0 68041.591 13703541.693 21525482.810 10 0 59562 1800.00000 0 -1963193.782 11901809.530 22484033.773 10 0 59562 2700.00000 0 -4194981.145 10200231.497 23006323.098 10 0 59562 3600.00000 0 -6577174.002 8647567.838 23082116.923 10 0 59562 4500.00000 0 -9051533.106 7283211.992 22709832.812 10 0 59562 5400.00000 0 -11553934.108 6135676.259 21896578.874 10 0 59562 6300.00000 0 -14016834.572 5221547.879 20658025.623 10 0 59562 7200.00000 0 -16371898.911 4544959.014 19018112.237 10 0 59562 8100.00000 0 -18552672.855 4097592.769 17008591.938 10 0 59562 9000.00000 0 -20497196.577 3859224.927 14668424.256 10 0 59562 9900.00000 0 -22150447.455 3798778.659 12043025.083 10 0 59562 10800.00000 0 -23466510.313 3875847.656 9183388.291 10 0 59562 11700.00000 0 -24410383.813 4042623.170 6145095.499 10 0 59562 12600.00000 0 -24959346.704 4246143.110 2987233.176 10 0 59562 13500.00000 0 -25103826.001 4430767.299 -228761.636 10 0 59562 14400.00000 0 -24847730.140 4540773.131 -3440303.933 10 0 59562 15300.00000 0 -24208232.794 4522960.455 -6584887.335 10 0 59562 16200.00000 0 -23215016.487 4329153.977 -9601309.755 10 0 59562 17100.00000 0 -21909008.143 3918495.725 -12430873.204 10 0 59562 18000.00000 0 -20340660.340 3259429.167 -15018533.302 10 0 59562 18900.00000 0 -18567851.366 2331289.753 -17313975.315 10 0 59562 19800.00000 0 -16653493.118 1125433.571 -19272595.334 10 0 59562 20700.00000 0 -14662948.144 -354144.391 -20856367.199 10 0 59562 21600.00000 0 -12661364.716 -2090729.157 -22034578.566 10 0 59562 22500.00000 0 -10711041.909 -4055345.862 -22784422.218 10 0 59562 23400.00000 0 -8868934.920 -6207742.144 -23091431.791 10 0 59562 24300.00000 0 -7184404.474 -8497852.123 -22949754.256 10 0 59562 25200.00000 0 -5697303.493 -10867681.154 -22362254.700 10 0 59562 26100.00000 0 -4436479.768 -13253532.994 -21340452.093 10 0 59562 27000.00000 0 -3418755.676 -15588486.970 -19904287.968 10 0 59562 27900.00000 0 -2648425.901 -17805022.414 -18081732.891 10 0 59562 28800.00000 0 -2117292.428 -19837681.495 -15908238.707 10 0 59562 29700.00000 0 -1805233.609 -21625660.145 -13426047.250 10 0 59562 30600.00000 0 -1681281.825 -23115219.751 -10683368.889 10 0 59562 31500.00000 0 -1705163.128 -24261819.627 -7733446.820 10 0 59562 32400.00000 0 -1829232.953 -25031882.003 -4633525.025 10 0 59562 33300.00000 0 -2000725.518 -25404116.459 -1443739.786 10 0 59562 34200.00000 0 -2164221.491 -25370349.018 1774043.848 10 0 59562 35100.00000 0 -2264229.392 -24935821.790 4957428.258 10 0 59562 36000.00000 0 -2247771.548 -24118951.071 8044689.069 10 0 59562 36900.00000 0 -2066865.241 -22950554.292 10975967.326 10 0 59562 37800.00000 0 -1680794.194 -21472578.355 13694425.180 10 0 59562 38700.00000 0 -1058074.283 -19736382.488 16147343.065 10 0 59562 39600.00000 0 -178030.226 -17800647.219 18287137.401 10 0 59562 40500.00000 0 968083.813 -15728996.469 20072279.619 10 0 59562 41400.00000 0 2376467.786 -13587431.429 21468099.212 10 0 59562 42300.00000 0 4030690.603 -11441682.700 22447455.612 10 0 59562 43200.00000 0 5902141.397 -9354590.318 22991266.279 10 0 59562 44100.00000 0 7951000.102 -7383620.084 23088880.883 10 0 59562 45000.00000 0 10127688.605 -5578619.046 22738294.241 10 0 59562 45900.00000 0 12374743.804 -3979903.014 21946193.550 10 0 59562 46800.00000 0 14629036.161 -2616755.352 20727838.368 10 0 59562 47700.00000 0 16824242.663 -1506399.355 19106774.851 10 0 59562 48600.00000 0 18893472.148 -653486.866 17114388.819 10 0 59562 49500.00000 0 20771934.167 -50124.293 14789305.251 10 0 59562 50400.00000 0 22399540.062 323565.195 12176644.980 10 0 59562 51300.00000 0 23723327.375 498367.237 9327152.217 10 0 59562 52200.00000 0 24699605.561 514435.205 6296209.361 10 0 59562 53100.00000 0 25295732.290 419348.034 3142758.158 10 0 59562 54000.00000 0 25491444.948 265849.804 -71851.573 10 0 59562 54900.00000 0 25279690.599 109367.675 -3285062.716 10 0 59562 55800.00000 0 24666918.846 5414.450 -6434336.795 10 0 59562 56700.00000 0 23672824.900 6987.141 -9458380.230 10 0 59562 57600.00000 0 22329553.548 162073.154 -12298345.935 10 0 59562 58500.00000 0 20680397.726 511371.078 -14898985.816 10 0 59562 59400.00000 0 18778046.846 1086323.807 -17209730.928 10 0 59562 60300.00000 0 16682459.016 1907548.317 -19185677.764 10 0 59562 61200.00000 0 14458447.105 2983729.268 -20788461.234 10 0 59562 62100.00000 0 12173080.344 4311023.814 -21986997.504 10 0 59562 63000.00000 0 9893010.479 5873003.238 -22758082.717 10 0 59562 63900.00000 0 7681834.389 7641134.226 -23086836.540 10 0 59562 64800.00000 0 5597602.891 9575779.928 -22966982.784 10 0 59562 65700.00000 0 3690578.952 11627679.190 -22400962.423 10 0 59562 66600.00000 0 2001337.761 13739842.290 -21399877.585 10 0 59562 67500.00000 0 559286.445 15849784.342 -19983268.267 10 0 59562 68400.00000 0 -618336.527 17892003.455 -18178726.530 10 0 59562 69300.00000 0 -1526942.228 19800600.588 -16021355.975 10 0 59562 70200.00000 0 -2174534.267 21511932.234 -13553087.109 10 0 59562 71100.00000 0 -2581118.113 22967185.690 -10821861.819 10 0 59562 72000.00000 0 -2777603.137 24114769.799 -7880702.737 10 0 59562 72900.00000 0 -2804244.958 24912421.792 -4786685.385 10 0 59562 73800.00000 0 -2708694.793 25328942.588 -1599832.843 10 0 59562 74700.00000 0 -2543738.822 25345488.335 1618045.679 10 0 59562 75600.00000 0 -2364823.546 24956364.503 4804550.024 10 0 59562 76500.00000 0 -2227471.915 24169289.508 7897895.008 10 0 59562 77400.00000 0 -2184699.526 23005116.931 10838103.801 10 0 59562 78300.00000 0 -2284540.086 21497027.939 13568165.911 10 0 59562 79200.00000 0 -2567784.701 19689227.460 16035137.677 10 0 59562 80100.00000 0 -3066030.522 17635198.237 18191164.257 10 0 59562 81000.00000 0 -3800121.370 15395585.158 19994403.838 10 0 59562 81900.00000 0 -4779046.625 13035797.354 21409836.626 10 0 59562 82800.00000 0 -5999345.543 10623427.284 22409943.370 10 0 59562 83700.00000 0 -7445043.255 8225593.387 22975240.622 10 0 59562 84600.00000 0 -9088122.661 5906315.946 23094662.536 10 0 59562 85500.00000 0 -10889514.076 3724034.596 22765781.707 99